SCP
0 0 0 0 0 0 0 0 0 -0 -0 0 -0 0 -0 -0 -0 -0 -0 -0 0 0 0 0 0 0 0 0 0 0 0 0 0 0 0 0 -0 -0
0 0 0 0 0 0 0 0 0 0 0 0 -0 -0 -0 -0 -0 -0 -0 -0 -0 -0 0 0 0 0 0 0 0 0 0 0 0 0 0 0 0 0
0 0 0 0 0 -0 -0 -0 -0 0 0 -0 -0 -0 -0 -0 -0 -0 -0 0 0 -0 0 0 0 0 0 0 0 0 0 0 0 0 0 0 0 0
-0 -0 -0 -0 -0 -0 -0 -0 -0 -0 -0 -0 -0 -0 -0 -0 -0 -0 -0 0 0 0 0 0 0 0 0 0 0 0 0 0 0 0 0 0 0 0
-0 -0 -0 -0 -0 -0 -0 0 0 -0 0 0 -0 -0 0 0 0 -0 -0 0 0 0 0 0 0 0 0 0 0 0 0 0 0 0 0 0 0 0
0 0 0 0 -0 -0 -0 -0 -0 -0 -0 -0 -0 -0 0 0 0 0 -0 0 0 0 0 0 0 0 0 0 0 0 0 0 0 0 0 0 0 0
0 0 0 -0 -0 -0 -0 -0 -0 -0 -0 -0 0 0 0 -0 0 0 0 0 0 0 0 0 0 0 0 0 0 0 0 0 0 0 0 0 0 0
0 0 0 0 0 0 -0 -0 -0 -0 -0 0 0 0 0 0 0 0 0 0 0 0 0 0 0 0 0 0 0 0 0 0 0 0 0 0 0 0
0 0 0 0 0 0 0 -0 -0 -0 0 0 0 0 0 0 0 0 0 0 0 0 0 0 0 0 0 0 0 0 0 0 0 0 0 0 0 0
0 0 0 0 0 0 0 -0 0 0 0 0 0 0 0 0 0 0 0 0 0 0 0 0 0 0 0 0 0 0 0 0 0 0 0 0 0 0
0 0 0 0 0 -0 -0 -0 0 0 0 0 0 0 0 -0 0 0 0 0 0 0 0 0 0 0 0 0 0 0 0 0 0 0 0 0 0 0
0 0 0 0 0 0 0 -0 0 0 0 0 0 0 0 0 0 0 0 0 0 0 0 0 0 0 0 0 0 0 0 0 0 0 0 0 0 0
0 0 0 0 0 -0 0 -0 -0 0 0 0 0 0 0 0 0 0 0 0 0 0 0 0 0 0 0 0 0 0 0 0 0 0 0 0 0 0
0 0 0 -0 -0 -0 0 0 -0 0 0 0 0 0 0 0 0 0 0 0 0 0 0 0 0 0 0 0 0 0 0 0 0 0 0 0 0 0
0 0 -0 -0 -0 -0 -0 -0 -0 -0 -0 0 0 0 0 0 0 0 0 0 0 0 0 0 0 0 0 0 0 0 0 0 0 0 0 0 0 0
0 0 0 -0 -0 -0 -0 -0 0 -0 -0 -0 0 0 0 0 0 0 0 0 0 0 0 0 0 0 0 0 0 0 0 0 0 0 0 0 0 0
0 0 0 0 0 0 0 -0 0 0 0 -0 -0 -0 0 -0 0 0 0 0 0 0 0 0 0 0 0 0 0 0 0 0 0 0 1 0 0 0
0 0 0 0 0 0 0 0 0 0 0 0 0 0 -0 0 0 0 0 0 0 0 0 0 0 0 0 0 0 0 0 0 0 0 0 0 0 0
0 0 0 0 0 0 0 0 0 0 0 0 0 0 0 -0 0 0 0 0 0 0 0 0 0 0 0 0 0 0 0 0 0 0 1 1 0 0
0 0 0 0 0 0 0 0 0 0 0 0 0 0 0 0 -0 0 0 0 -0 0 0 0 0 0 0 0 0 0 0 0 0 0 0 0 0 0
0 0 0 0 0 0 0 0 0 0 0 0 0 0 0 0 0 0 0 0 -0 0 0 0 0 0 0 0 0 0 0 0 0 1 0 0 0 0
0 0 0 0 0 0 0 0 0 0 0 0 0 0 0 0 0 0 -0 -0 0 0 0 0 0 0 0 0 0 0 0 0 0 0 0 0 0 0
0 0 0 0 0 0 0 0 0 0 0 0 0 0 0 0 0 0 0 0 -0 0 0 0 0 0 0 0 0 0 0 0 0 0 0 0 0 0
Wind_Speed_500mb
24 26 31 31 33 35 35 36 36 39 74 65 78 67 77 69 58 51 49 50 56 57 53 48 49 47 51 56 56 52 47 40 37 34 35 32 32 36
24 27 30 35 38 40 43 42 39 42 47 75 81 85 86 86 79 71 63 60 59 64 67 65 62 60 57 56 59 59 55 50 44 40 38 39 40 40
29 34 37 41 46 48 47 47 51 55 67 80 79 82 88 89 89 84 79 71 68 68 68 72 75 71 67 65 65 65 59 53 52 49 48 47 47 46
39 43 50 53 54 58 59 59 62 66 69 83 83 82 86 86 90 90 87 83 76 70 72 72 72 75 75 71 64 63 60 57 54 55 55 54 53 53
43 49 57 64 64 66 65 65 71 79 79 80 92 88 85 86 92 91 89 88 84 77 72 70 73 72 73 76 76 68 64 63 62 61 59 56 53 53
48 54 60 70 71 74 71 75 79 76 71 71 74 79 81 84 82 90 92 83 85 75 70 75 71 70 70 72 77 81 77 72 66 60 55 52 51 48
53 59 63 73 72 70 68 77 78 77 74 80 83 80 76 70 67 72 79 76 68 68 76 80 84 81 71 66 69 73 78 75 67 67 61 58 59 57
57 62 67 78 71 70 67 73 71 70 75 76 84 85 89 84 79 77 70 75 78 65 55 55 44 65 83 79 73 67 68 74 70 71 72 66 64 60
58 64 71 79 65 69 77 80 82 77 74 80 84 83 91 86 84 76 82 80 82 79 73 87 76 80 79 81 88 79 73 70 68 69 76 70 72 70
57 65 71 75 63 71 81 84 84 80 79 75 75 80 80 78 78 71 72 80 82 80 75 87 79 88 89 94 99 99 89 82 80 68 67 74 73 74
59 66 74 72 65 64 74 82 78 76 71 68 69 74 70 61 61 63 73 79 86 75 64 72 78 82 80 85 86 90 96 91 86 85 71 67 68 65
60 67 70 71 59 59 69 76 76 77 74 70 67 66 54 49 49 52 64 75 78 79 72 71 73 63 71 62 77 76 76 81 81 82 81 76 72 70
59 70 70 68 62 58 61 68 66 63 62 61 61 61 57 48 49 49 61 62 72 76 67 70 74 75 74 79 80 62 47 56 64 68 74 82 84 83
55 61 62 66 58 53 56 56 67 66 64 64 63 61 58 55 52 39 42 61 67 72 66 65 71 69 74 75 72 72 72 74 65 46 45 63 70 80
49 52 54 54 56 58 54 62 57 61 70 69 66 71 65 61 61 55 48 52 57 62 65 64 73 77 80 90 88 78 75 71 72 68 62 55 50 59
48 48 49 47 46 54 60 60 66 66 67 65 67 63 58 56 65 66 66 66 66 70 66 64 62 67 83 90 86 100 62 66 45 69 65 53 51 53
49 50 49 48 49 50 53 59 62 66 71 67 67 67 74 66 56 65 74 64 71 73 76 72 70 67 72 77 91 100 93 90 70 63 60 56 55 54
47 49 47 44 46 47 49 54 57 62 65 71 74 71 71 74 69 61 51 62 76 81 87 83 66 66 68 73 74 79 95 101 89 76 71 68 70 64
50 51 48 44 43 43 44 48 54 58 65 69 73 77 76 80 76 73 64 67 77 81 85 87 79 59 66 68 62 57 78 79 87 71 69 69 71 74
54 52 54 48 44 42 41 42 48 55 63 70 74 77 82 79 86 79 77 66 84 74 77 79 80 61 62 67 58 53 53 53 67 67 66 69 66 62
63 60 57 57 52 47 44 42 41 46 59 70 72 72 78 82 84 83 78 76 101 72 57 65 63 56 59 52 51 53 50 44 58 53 70 60 64 65
68 70 64 62 60 56 52 48 46 43 50 54 60 67 70 75 80 83 76 82 85 93 64 50 47 41 45 47 50 48 49 53 55 51 48 60 74 77
74 79 75 69 67 65 60 56 52 49 47 52 53 56 65 70 76 79 75 79 82 83 87 58 51 41 42 46 46 47 49 50 54 54 53 66 74 65
Wind_Direction_500mb
331 328 333 333 329 326 323 321 316 309 304 299 304 300 300 298 291 285 278 266 261 262 263 262 259 264 261 260 261 263 268 272 276 278 271 270 268 270
350 348 344 341 336 332 327 323 317 306 289 295 295 295 297 297 294 289 282 277 269 259 260 261 262 262 260 259 260 262 264 265 268 269 268 268 271 273
354 350 347 344 343 337 330 326 323 317 303 300 296 295 293 293 292 291 287 279 272 268 262 260 260 260 260 260 259 257 256 258 264 266 263 264 269 271
353 351 347 341 338 338 335 330 325 323 315 304 302 298 295 294 291 289 288 286 279 272 268 263 259 258 256 256 259 256 252 252 259 264 264 263 264 266
353 352 349 345 341 341 341 336 332 325 317 309 304 301 293 292 292 289 286 282 280 275 270 268 263 261 258 252 251 252 252 256 260 261 260 258 256 260
348 345 345 345 341 343 336 336 333 323 308 301 299 300 300 299 291 294 295 292 285 280 270 261 261 259 257 254 250 250 252 258 258 250 255 254 248 253
342 340 340 341 339 336 331 329 326 327 309 304 298 295 295 297 293 292 288 285 285 286 282 267 257 255 254 251 251 251 251 251 252 247 250 251 250 250
334 336 337 338 335 336 328 324 324 313 309 302 296 289 293 294 295 287 280 287 291 277 288 286 281 268 258 251 248 250 248 246 249 247 249 250 250 249
330 332 334 333 331 334 333 327 326 319 308 304 298 291 291 294 293 289 280 280 277 281 282 277 270 268 256 253 249 249 249 246 247 250 248 252 248 247
330 332 331 332 333 333 329 330 327 320 315 307 300 299 296 291 284 282 278 277 279 280 280 280 280 275 275 269 261 255 251 248 246 248 252 251 248 247
328 331 334 336 333 334 334 333 328 326 321 314 308 304 292 280 276 276 269 272 275 275 271 271 276 279 277 276 271 267 258 249 248 244 246 244 240 239
328 331 335 340 332 334 337 338 335 333 326 320 319 319 310 295 282 264 265 268 270 274 272 273 283 284 284 280 279 279 272 259 250 246 245 241 237 231
325 331 336 338 339 339 344 352 343 334 331 327 324 326 330 319 304 269 253 264 268 270 276 277 277 277 271 274 274 265 262 254 250 246 240 240 238 237
323 329 335 343 337 339 344 346 360 360 344 339 335 329 325 322 321 308 272 263 268 273 277 276 273 272 276 274 272 275 272 254 249 251 240 238 240 242
315 324 333 341 346 344 344 353 353 1 5 0 342 335 328 322 316 302 295 284 279 277 274 272 271 271 270 271 272 266 267 270 256 251 250 244 240 237
304 316 327 337 348 355 358 358 360 1 360 1 5 348 331 323 314 308 302 295 289 286 282 281 275 267 269 266 266 264 258 257 262 250 242 241 233 237
299 309 318 331 337 345 354 1 3 1 3 2 359 359 4 354 322 307 294 292 282 278 283 280 282 280 271 266 259 254 256 254 252 252 243 242 242 240
292 301 310 321 330 338 345 352 358 359 359 1 0 358 357 356 353 351 331 304 293 290 284 284 282 278 271 261 253 254 250 253 254 249 247 242 241 241
282 292 296 306 315 325 336 343 349 356 357 358 358 359 356 354 353 354 348 343 328 289 279 280 272 271 261 256 265 260 249 247 246 249 239 233 240 242
277 283 286 291 296 306 319 333 342 350 354 356 355 356 358 354 354 351 349 338 339 324 287 272 265 258 256 257 264 257 247 245 241 237 233 234 235 240
278 277 282 285 288 291 300 312 325 339 345 347 350 352 353 354 351 349 348 350 349 334 305 271 268 264 263 265 259 257 253 246 234 234 234 227 235 233
284 280 283 283 282 284 289 297 307 322 333 335 340 345 348 351 351 349 348 345 347 355 337 294 278 258 245 244 249 249 253 247 236 239 236 234 233 230
295 284 280 282 282 281 282 285 294 302 313 321 329 338 341 345 348 349 349 352 354 347 356 333 270 253 250 246 246 255 244 239 233 232 231 240 229 222
Wind_Speed_850mb
24 26 31 31 33 35 35 36 36 39 74 65 78 67 77 69 58 51 49 50 56 57 53 48 49 47 51 56 56 52 47 40 37 34 35 32 32 36
24 27 30 35 38 40 43 42 39 42 47 75 81 85 86 86 79 71 63 60 59 64 67 65 62 60 57 56 59 59 55 50 44 40 38 39 40 40
29 34 37 41 46 48 47 47 51 55 67 80 79 82 88 89 89 84 79 71 68 68 68 72 75 71 67 65 65 65 59 53 52 49 48 47 47 46
39 43 50 53 54 58 59 59 62 66 69 83 83 82 86 86 90 90 87 83 76 70 72 72 72 75 75 71 64 63 60 57 54 55 55 54 53 53
43 49 57 64 64 66 65 65 71 79 79 80 92 88 85 86 92 91 89 88 84 77 72 70 73 72 73 76 76 68 64 63 62 61 59 56 53 53
48 54 60 70 71 74 71 75 79 76 71 71 74 79 81 84 82 90 92 83 85 75 70 75 71 70 70 72 77 81 77 72 66 60 55 52 51 48
53 59 63 73 72 70 68 77 78 77 74 80 83 80 76 70 67 72 79 76 68 68 76 80 84 81 71 66 69 73 78 75 67 67 61 58 59 57
57 62 67 78 71 70 67 73 71 70 75 76 84 85 89 84 79 77 70 75 78 65 55 55 44 65 83 79 73 67 68 74 70 71 72 66 64 60
58 64 71 79 65 69 77 80 82 77 74 80 84 83 91 86 84 76 82 80 82 79 73 87 76 80 79 81 88 79 73 70 68 69 76 70 72 70
57 65 71 75 63 71 81 84 84 80 79 75 75 80 80 78 78 71 72 80 82 80 75 87 79 88 89 94 99 99 89 82 80 68 67 74 73 74
59 66 74 72 65 64 74 82 78 76 71 68 69 74 70 61 61 63 73 79 86 75 64 72 78 82 80 85 86 90 96 91 86 85 71 67 68 65
60 67 70 71 59 59 69 76 76 77 74 70 67 66 54 49 49 52 64 75 78 79 72 71 73 63 71 62 77 76 76 81 81 82 81 76 72 70
59 70 70 68 62 58 61 68 66 63 62 61 61 61 57 48 49 49 61 62 72 76 67 70 74 75 74 79 80 62 47 56 64 68 74 82 84 83
55 61 62 66 58 53 56 56 67 66 64 64 63 61 58 55 52 39 42 61 67 72 66 65 71 69 74 75 72 72 72 74 65 46 45 63 70 80
49 52 54 54 56 58 54 62 57 61 70 69 66 71 65 61 61 55 48 52 57 62 65 64 73 77 80 90 88 78 75 71 72 68 62 55 50 59
48 48 49 47 46 54 60 60 66 66 67 65 67 63 58 56 65 66 66 66 66 70 66 64 62 67 83 90 86 100 62 66 45 69 65 53 51 53
49 50 49 48 49 50 53 59 62 66 71 67 67 67 74 66 56 65 74 64 71 73 76 72 70 67 72 77 91 100 93 90 70 63 60 56 55 54
47 49 47 44 46 47 49 54 57 62 65 71 74 71 71 74 69 61 51 62 76 81 87 83 66 66 68 73 74 79 95 101 89 76 71 68 70 64
50 51 48 44 43 43 44 48 54 58 65 69 73 77 76 80 76 73 64 67 77 81 85 87 79 59 66 68 62 57 78 79 87 71 69 69 71 74
54 52 54 48 44 42 41 42 48 55 63 70 74 77 82 79 86 79 77 66 84 74 77 79 80 61 62 67 58 53 53 53 67 67 66 69 66 62
63 60 57 57 52 47 44 42 41 46 59 70 72 72 78 82 84 83 78 76 101 72 57 65 63 56 59 52 51 53 50 44 58 53 70 60 64 65
68 70 64 62 60 56 52 48 46 43 50 54 60 67 70 75 80 83 76 82 85 93 64 50 47 41 45 47 50 48 49 53 55 51 48 60 74 77
74 79 75 69 67 65 60 56 52 49 47 52 53 56 65 70 76 79 75 79 82 83 87 58 51 41 42 46 46 47 49 50 54 54 53 66 74 65
Wind_Direction_850mb
331 328 333 333 329 326 323 321 316 309 304 299 304 300 300 298 291 285 278 266 261 262 263 262 259 264 261 260 261 263 268 272 276 278 271 270 268 270
350 348 344 341 336 332 327 323 317 306 289 295 295 295 297 297 294 289 282 277 269 259 260 261 262 262 260 259 260 262 264 265 268 269 268 268 271 273
354 350 347 344 343 337 330 326 323 317 303 300 296 295 293 293 292 291 287 279 272 268 262 260 260 260 260 260 259 257 256 258 264 266 263 264 269 271
353 351 347 341 338 338 335 330 325 323 315 304 302 298 295 294 291 289 288 286 279 272 268 263 259 258 256 256 259 256 252 252 259 264 264 263 264 266
353 352 349 345 341 341 341 336 332 325 317 309 304 301 293 292 292 289 286 282 280 275 270 268 263 261 258 252 251 252 252 256 260 261 260 258 256 260
348 345 345 345 341 343 336 336 333 323 308 301 299 300 300 299 291 294 295 292 285 280 270 261 261 259 257 254 250 250 252 258 258 250 255 254 248 253
342 340 340 341 339 336 331 329 326 327 309 304 298 295 295 297 293 292 288 285 285 286 282 267 257 255 254 251 251 251 251 251 252 247 250 251 250 250
334 336 337 338 335 336 328 324 324 313 309 302 296 289 293 294 295 287 280 287 291 277 288 286 281 268 258 251 248 250 248 246 249 247 249 250 250 249
330 332 334 333 331 334 333 327 326 319 308 304 298 291 291 294 293 289 280 280 277 281 282 277 270 268 256 253 249 249 249 246 247 250 248 252 248 247
330 332 331 332 333 333 329 330 327 320 315 307 300 299 296 291 284 282 278 277 279 280 280 280 280 275 275 269 261 255 251 248 246 248 252 251 248 247
328 331 334 336 333 334 334 333 328 326 321 314 308 304 292 280 276 276 269 272 275 275 271 271 276 279 277 276 271 267 258 249 248 244 246 244 240 239
328 331 335 340 332 334 337 338 335 333 326 320 319 319 310 295 282 264 265 268 270 274 272 273 283 284 284 280 279 279 272 259 250 246 245 241 237 231
325 331 336 338 339 339 344 352 343 334 331 327 324 326 330 319 304 269 253 264 268 270 276 277 277 277 271 274 274 265 262 254 250 246 240 240 238 237
323 329 335 343 337 339 344 346 360 360 344 339 335 329 325 322 321 308 272 263 268 273 277 276 273 272 276 274 272 275 272 254 249 251 240 238 240 242
315 324 333 341 346 344 344 353 353 1 5 0 342 335 328 322 316 302 295 284 279 277 274 272 271 271 270 271 272 266 267 270 256 251 250 244 240 237
304 316 327 337 348 355 358 358 360 1 360 1 5 348 331 323 314 308 302 295 289 286 282 281 275 267 269 266 266 264 258 257 262 250 242 241 233 237
299 309 318 331 337 345 354 1 3 1 3 2 359 359 4 354 322 307 294 292 282 278 283 280 282 280 271 266 259 254 256 254 252 252 243 242 242 240
292 301 310 321 330 338 345 352 358 359 359 1 0 358 357 356 353 351 331 304 293 290 284 284 282 278 271 261 253 254 250 253 254 249 247 242 241 241
282 292 296 306 315 325 336 343 349 356 357 358 358 359 356 354 353 354 348 343 328 289 279 280 272 271 261 256 265 260 249 247 246 249 239 233 240 242
277 283 286 291 296 306 319 333 342 350 354 356 355 356 358 354 354 351 349 338 339 324 287 272 265 258 256 257 264 257 247 245 241 237 233 234 235 240
278 277 282 285 288 291 300 312 325 339 345 347 350 352 353 354 351 349 348 350 349 334 305 271 268 264 263 265 259 257 253 246 234 234 234 227 235 233
284 280 283 283 282 284 289 297 307 322 333 335 340 345 348 351 351 349 348 345 347 355 337 294 278 258 245 244 249 249 253 247 236 239 236 234 233 230
295 284 280 282 282 281 282 285 294 302 313 321 329 338 341 345 348 349 349 352 354 347 356 333 270 253 250 246 246 255 244 239 233 232 231 240 229 222